| time (UTC) | temp C | wind direction | speed KPH | gust KPH | rain 1hr cm | rain 24hr cm | rain mn cm | humidity % | barometer mb |
| 20260504100305 | 12 | 13 | 8.0 | 11.3 | 0.00 | 0.00 | 0.00 | 86 | 1013.0 |
| 20260504100204 | 12 | 13 | 8.0 | 11.3 | 0.00 | 0.00 | 0.00 | 86 | 1013.0 |
| 20260504080301 | 13 | 15 | 6.4 | 8.0 | 0.00 | 0.00 | 0.00 | 85 | 1012.0 |
| 20260504080201 | 13 | 15 | 6.4 | 8.0 | 0.00 | 0.00 | 0.00 | 85 | 1012.0 |
| 20260504070300 | 13 | 13 | 6.4 | 8.0 | 0.00 | 0.00 | 0.00 | 89 | 1013.0 |
| 20260504070200 | 13 | 13 | 6.4 | 8.0 | 0.00 | 0.00 | 0.00 | 89 | 1013.0 |
| 20260504060158 | 14 | 14 | 6.4 | 8.0 | 0.00 | 0.00 | 0.00 | 85 | 1014.0 |
| 20260504050257 | 14 | 17 | 6.4 | 8.0 | 0.00 | 0.00 | 0.00 | 84 | 1014.0 |
| 20260504050157 | 14 | 17 | 6.4 | 8.0 | 0.00 | 0.00 | 0.00 | 84 | 1014.0 |
| 20260504044256 | 15 | 17 | 6.4 | 8.0 | 0.00 | 0.00 | 0.00 | 84 | 1015.0 |
| 20260504044156 | 15 | 17 | 6.4 | 8.0 | 0.00 | 0.00 | 0.00 | 84 | 1015.0 |
| 20260504042256 | 15 | 17 | 6.4 | 9.7 | 0.00 | 0.00 | 0.00 | 88 | 1014.0 |
| 20260504042156 | 15 | 17 | 6.4 | 9.7 | 0.00 | 0.00 | 0.00 | 88 | 1014.0 |
| 20260504040255 | 13 | 18 | 4.8 | 8.0 | 0.00 | 0.00 | 0.00 | 86 | 1014.0 |
| 20260504040155 | 13 | 18 | 4.8 | 8.0 | 0.00 | 0.00 | 0.00 | 86 | 1014.0 |
| 20260504034255 | 14 | 18 | 4.8 | 8.0 | 0.00 | 0.00 | 0.00 | 86 | 1014.0 |
| 20260504034155 | 14 | 18 | 4.8 | 8.0 | 0.00 | 0.00 | 0.00 | 86 | 1014.0 |
| 20260504032255 | 15 | 18 | 4.8 | 8.0 | 0.00 | 0.00 | 0.00 | 86 | 1013.0 |
| 20260504032154 | 15 | 18 | 4.8 | 8.0 | 0.00 | 0.00 | 0.00 | 86 | 1013.0 |
| 20260504030254 | 15 | 18 | 4.8 | 8.0 | 0.00 | 0.00 | 0.00 | 91 | 1014.0 |
| 20260504030154 | 15 | 18 | 4.8 | 8.0 | 0.00 | 0.00 | 0.00 | 91 | 1014.0 |
| 20260504024254 | 14 | 42 | 1.6 | 4.8 | 0.00 | 0.00 | 0.00 | 79 | 1014.0 |
| 20260504024153 | 14 | 42 | 1.6 | 4.8 | 0.00 | 0.00 | 0.00 | 79 | 1014.0 |
| 20260504022253 | 15 | 42 | 1.6 | 4.8 | 0.00 | 0.00 | 0.00 | 79 | 1012.0 |
| 20260504022153 | 15 | 42 | 1.6 | 4.8 | 0.00 | 0.00 | 0.00 | 79 | 1012.0 |
| 20260504020252 | 15 | 42 | 1.6 | 4.8 | 0.00 | 0.00 | 0.00 | 79 | 1013.0 |
| 20260504020152 | 15 | 42 | 1.6 | 4.8 | 0.00 | 0.00 | 0.00 | 79 | 1013.0 |
| 20260504014252 | 16 | 42 | 1.6 | 4.8 | 0.00 | 0.00 | 0.00 | 80 | 1013.0 |
| 20260504014152 | 16 | 42 | 1.6 | 4.8 | 0.00 | 0.00 | 0.00 | 80 | 1013.0 |
| 20260504012252 | 16 | 42 | 1.6 | 4.8 | 0.00 | 0.00 | 0.00 | 81 | 1012.0 |
| 20260504012151 | 16 | 42 | 1.6 | 4.8 | 0.00 | 0.00 | 0.00 | 81 | 1012.0 |
| 20260504010251 | 15 | 42 | 1.6 | 4.8 | 0.00 | 0.00 | 0.00 | 77 | 1013.0 |
| 20260504010151 | 15 | 42 | 1.6 | 4.8 | 0.00 | 0.00 | 0.00 | 77 | 1013.0 |
| 20260504004251 | 15 | 42 | 1.6 | 4.8 | 0.00 | 0.00 | 0.00 | 77 | 1013.0 |
| 20260504004150 | 15 | 42 | 1.6 | 4.8 | 0.00 | 0.00 | 0.00 | 77 | 1013.0 |
| 20260504002250 | 15 | 102 | 1.6 | 6.4 | 0.00 | 0.00 | 0.00 | 82 | 1011.0 |
| 20260504002150 | 15 | 102 | 1.6 | 6.4 | 0.00 | 0.00 | 0.00 | 82 | 1011.0 |
| 20260504000250 | 15 | 102 | 1.6 | 6.4 | 0.00 | 0.00 | 0.00 | 82 | 1012.0 |
| 20260504000150 | 15 | 102 | 1.6 | 6.4 | 0.00 | 0.00 | 0.00 | 82 | 1012.0 |
| 20260503234249 | 16 | 102 | 1.6 | 6.4 | 0.00 | 0.00 | 0.00 | 82 | 1012.0 |
| 20260503234149 | 16 | 102 | 1.6 | 6.4 | 0.00 | 0.00 | 0.00 | 82 | 1012.0 |
| 20260503232249 | 16 | 102 | 1.6 | 6.4 | 0.03 | 0.00 | 0.00 | 82 | 1010.0 |
| 20260503232149 | 16 | 102 | 1.6 | 6.4 | 0.03 | 0.00 | 0.00 | 82 | 1010.0 |
| 20260503230248 | 17 | 102 | 1.6 | 6.4 | 0.05 | 0.00 | 0.00 | 82 | 1011.0 |
| 20260503230148 | 17 | 102 | 1.6 | 6.4 | 0.05 | 0.00 | 0.00 | 82 | 1011.0 |
| 20260503224248 | 17 | 102 | 1.6 | 6.4 | 0.10 | 0.00 | 0.00 | 82 | 1011.0 |
| 20260503224148 | 17 | 102 | 1.6 | 6.4 | 0.10 | 0.00 | 0.00 | 82 | 1011.0 |
| 20260503222247 | 18 | 102 | 1.6 | 6.4 | 0.13 | 0.00 | 0.00 | 82 | 1010.0 |
| 20260503222147 | 18 | 102 | 1.6 | 6.4 | 0.13 | 0.00 | 0.00 | 82 | 1010.0 |
| 20260503220247 | 18 | 102 | 1.6 | 6.4 | 0.10 | 0.00 | 0.00 | 82 | 1011.0 |
| 20260503220147 | 18 | 102 | 1.6 | 6.4 | 0.10 | 0.00 | 0.00 | 82 | 1011.0 |
| 20260503214247 | 16 | 102 | 1.6 | 6.4 | 0.10 | 0.00 | 0.00 | 73 | 1011.0 |
| 20260503214146 | 16 | 102 | 1.6 | 6.4 | 0.10 | 0.00 | 0.00 | 73 | 1011.0 |
| 20260503212246 | 17 | 146 | 1.6 | 4.8 | 0.05 | 0.00 | 0.00 | 73 | 1010.0 |
| 20260503212146 | 17 | 146 | 1.6 | 4.8 | 0.05 | 0.00 | 0.00 | 73 | 1010.0 |
| 20260503210245 | 17 | 176 | 1.6 | 4.8 | 0.00 | 0.00 | 0.00 | 74 | 1011.0 |
| 20260503210145 | 17 | 176 | 1.6 | 4.8 | 0.00 | 0.00 | 0.00 | 74 | 1011.0 |
| 20260503204245 | 18 | 176 | 1.6 | 4.8 | 0.00 | 0.00 | 0.00 | 74 | 1011.0 |
| 20260503204145 | 18 | 176 | 1.6 | 4.8 | 0.00 | 0.00 | 0.00 | 74 | 1011.0 |
| 20260503202244 | 18 | 176 | 1.6 | 4.8 | 0.03 | 0.00 | 0.00 | 74 | 1010.0 |
| 20260503202144 | 18 | 176 | 1.6 | 4.8 | 0.03 | 0.00 | 0.00 | 74 | 1010.0 |
| 20260503200244 | 18 | 176 | 1.6 | 4.8 | 0.00 | 0.00 | 0.00 | 78 | 1012.0 |
| 20260503200144 | 18 | 176 | 1.6 | 4.8 | 0.00 | 0.00 | 0.00 | 78 | 1012.0 |
| 20260503194143 | 18 | 176 | 1.6 | 4.8 | 0.03 | 0.00 | 0.00 | 78 | 1012.0 |
| 20260503192243 | 18 | 198 | 3.2 | 6.4 | 0.00 | 0.00 | 0.00 | 75 | 1012.0 |
| 20260503192143 | 18 | 198 | 3.2 | 6.4 | 0.00 | 0.00 | 0.00 | 75 | 1012.0 |
| 20260503190242 | 18 | 198 | 3.2 | 6.4 | 0.00 | 0.00 | 0.00 | 76 | 1012.0 |
| 20260503190142 | 18 | 198 | 3.2 | 6.4 | 0.00 | 0.00 | 0.00 | 76 | 1012.0 |
| 20260503184242 | 18 | 198 | 3.2 | 6.4 | 0.00 | 0.00 | 0.00 | 76 | 1012.0 |
| 20260503184142 | 18 | 198 | 3.2 | 6.4 | 0.00 | 0.00 | 0.00 | 76 | 1012.0 |
| 20260503182242 | 17 | 118 | 0.0 | 4.8 | 0.00 | 0.00 | 0.00 | 79 | 1013.0 |
| 20260503182141 | 17 | 118 | 0.0 | 4.8 | 0.00 | 0.00 | 0.00 | 79 | 1013.0 |
| 20260503180241 | 17 | 118 | 0.0 | 4.8 | 0.00 | 0.00 | 0.00 | 81 | 1013.0 |
| 20260503180141 | 17 | 118 | 0.0 | 4.8 | 0.00 | 0.00 | 0.00 | 81 | 1013.0 |
| 20260503174240 | 17 | 118 | 0.0 | 4.8 | 0.00 | 0.00 | 0.00 | 81 | 1013.0 |
| 20260503174140 | 17 | 118 | 0.0 | 4.8 | 0.00 | 0.00 | 0.00 | 81 | 1013.0 |
| 20260503172240 | 17 | 163 | 3.2 | 6.4 | 0.00 | 0.00 | 0.00 | 75 | 1013.0 |
| 20260503172140 | 17 | 163 | 3.2 | 6.4 | 0.00 | 0.00 | 0.00 | 75 | 1013.0 |
| 20260503170239 | 17 | 163 | 3.2 | 6.4 | 0.00 | 0.00 | 0.00 | 77 | 1014.0 |
| 20260503170139 | 17 | 163 | 3.2 | 6.4 | 0.00 | 0.00 | 0.00 | 77 | 1014.0 |
| 20260503160137 | 16 | 160 | 3.2 | 8.0 | 0.00 | 0.00 | 0.00 | 67 | 1014.0 |
| 20260503150236 | 16 | 169 | 1.6 | 4.8 | 0.00 | 0.00 | 0.00 | 71 | 1014.0 |
| 20260503150136 | 16 | 169 | 1.6 | 4.8 | 0.00 | 0.00 | 0.00 | 71 | 1014.0 |
| 20260503140235 | 16 | 22 | 1.6 | 4.8 | 0.00 | 0.00 | 0.00 | 78 | 1014.0 |
| 20260503140135 | 16 | 22 | 1.6 | 4.8 | 0.00 | 0.00 | 0.00 | 78 | 1014.0 |
| 20260503130233 | 15 | 16 | 4.8 | 9.7 | 0.00 | 0.00 | 0.00 | 88 | 1014.0 |
| 20260503130133 | 15 | 16 | 4.8 | 9.7 | 0.00 | 0.00 | 0.00 | 88 | 1014.0 |
| 20260503120132 | 13 | 19 | 8.0 | 8.0 | 0.00 | 0.00 | 0.00 | 89 | 1013.0 |
| 20260503110231 | 13 | 14 | 6.4 | 6.4 | 0.00 | 0.00 | 0.00 | 86 | 1013.0 |
| 20260503110130 | 13 | 14 | 6.4 | 6.4 | 0.00 | 0.00 | 0.00 | 86 | 1013.0 |